Retour au catalogue

CZ-6A DEB

ActifPO
NORAD 54340·DEBRIS·🇨🇳 China

Lancé Nov 11, 2022 depuis Taiyuan Satellite Launch Center

Loading…

Prochains Passages (prochaines 24 heures)

TLE

FraisSource: Space-Track

Époque: Sep 14, 2026, 05:37 UTC

1 54340U 22151CK  26257.23468280  .00005088  00000-0  63108-3 0  9994
2 54340  98.5937 354.4665 0096202 241.3471 117.8039 14.79901513204659

Suivez CZ-6A DEB en temps réel avec AllMySat

Download on the App Store